Home   Weather   Exeter   Past weeks
Flag for United Kingdom

Past Weather in Exeter, England, United Kingdom — Yesterday and Last 2 Weeks

Now
61 °F

Light rain. Broken clouds.


Feels Like: 61 °F
Forecast: 65 / 58 °F
Wind: 14 mph from South

Location: Exeter Airport

Current Time: Sep 23, 2019 at 3:02:24 pm

Latest Report: Sep 23, 2019 at 2:20 pm


Visibility: 4 mi

Pressure: 29.77 "Hg

Humidity: 94%

Dew Point: 59 °F

Location of ExeterLocation

Past Weather in Exeter — Graph

°F

Exeter Temperature Yesterday

Maximum temperature yesterday: 66 °F (at 12:20 am)
Minimum temperature yesterday: 55 °F (at 11:50 pm)
Average temperature yesterday: 61 °F

High & Low Weather Summary for the Past Weeks

 TemperatureHumidityPressure
High77 °F (Sep 15, 4:50 pm)100% (Sep 9, 1:50 am)30.57 "Hg (Sep 9, 1:50 am)
Low41 °F (Sep 14, 6:20 am)46% (Sep 14, 2:50 pm)29.53 "Hg (Sep 22, 5:50 am)
Average60 °F81%30.17 "Hg
* Reported Sep 8 1:20 pm — Sep 23 1:50 pm, Exeter. Weather by CustomWeather, © 2019

Note: Actual official high and low records may vary slightly from our data, if they occured in-between our weather recording intervals... More about our weather records

Advertising

Exeter Weather History for the Previous 24 Hours

Scroll right to see more
 ConditionsComfort  
Time TempWeatherWind HumidityBarometerVisibility
1:50 pm
Mon, Sep 23
61 °FLight rain. Broken clouds.14 mph94%29.77 "Hg4 mi
1:20 pm61 °FLight rain. Broken clouds.14 mph94%29.77 "Hg6 mi
12:50 pm61 °FRain. Broken clouds.14 mph94%29.77 "Hg5 mi
12:20 pm61 °FLight rain. Partly sunny.14 mph94%29.77 "HgN/A
11:50 am61 °FLight rain. Broken clouds.16 mph94%29.77 "HgN/A
11:20 am61 °FLight rain. Broken clouds.17 mph94%29.80 "HgN/A
10:50 am63 °FScattered clouds.15 mph88%29.80 "HgN/A
10:20 am59 °FScattered clouds.13 mph88%29.80 "HgN/A
9:50 am61 °FScattered clouds.12 mph94%29.83 "HgN/A
9:20 am59 °FPassing clouds.9 mph94%29.83 "HgN/A
8:50 am57 °FPassing clouds.8 mph94%29.83 "HgN/A
8:20 am57 °FPassing clouds.7 mph100%29.80 "HgN/A
7:50 am50 °FPassing clouds.2 mph100%29.83 "HgN/A
7:20 am48 °FFog.2 mph94%29.80 "HgN/A
6:50 am50 °FPassing clouds.1 mph100%29.80 "HgN/A
6:20 am52 °FClear.1 mph100%29.80 "Hg10 mi
5:50 am50 °FClear.1 mph94%29.80 "Hg10 mi
5:20 am52 °FClear.1 mph100%29.80 "Hg10 mi
2:50 am54 °FPassing clouds.6 mph94%29.80 "HgN/A
2:20 am54 °FClear.10 mph94%29.80 "Hg10 mi
1:50 am55 °FClear.8 mph94%29.80 "Hg10 mi
1:20 am54 °FClear.6 mph94%29.77 "Hg10 mi
12:50 am55 °FClear.6 mph94%29.77 "Hg10 mi
12:20 am55 °FClear.6 mph94%29.74 "Hg10 mi
11:50 pm
Sun, Sep 22
55 °FPassing clouds.5 mph94%29.74 "HgN/A
11:20 pm57 °FPassing clouds.5 mph100%29.74 "HgN/A
10:50 pm57 °FScattered showers. Passing clouds.6 mph100%29.71 "HgN/A
10:20 pm57 °FPassing clouds.7 mph94%29.71 "HgN/A
9:50 pm57 °FPassing clouds.7 mph100%29.68 "HgN/A
9:20 pm57 °FPassing clouds.5 mph94%29.68 "HgN/A
8:50 pm57 °FSprinkles. Passing clouds.3 mph94%29.65 "HgN/A
8:20 pm57 °FPassing clouds.6 mph94%29.65 "HgN/A
7:50 pm61 °FPassing clouds.3 mph94%29.65 "HgN/A
7:20 pm61 °FPassing clouds.7 mph88%29.62 "HgN/A
6:50 pm59 °FPassing clouds.9 mph88%29.62 "HgN/A
6:20 pm61 °FPassing clouds.10 mph83%29.62 "HgN/A
5:50 pm64 °FScattered clouds.12 mph78%29.62 "HgN/A
5:20 pm64 °FScattered clouds.14 mph78%29.59 "HgN/A
4:50 pm63 °FScattered clouds.14 mph83%29.59 "HgN/A
4:20 pm64 °FScattered clouds.15 mph83%29.59 "HgN/A
3:50 pm64 °FScattered clouds.16 mph83%29.59 "HgN/A
3:20 pm64 °FScattered clouds.16 mph83%29.59 "HgN/A
Weather by CustomWeather, © 2019

See weather overview